Weather History for KLXT - March, 2013

Change the Weather History Date:

Friday, March 1, 2013

  Actual Average (KMKC) Record (KMKC)
Temperature  
Mean Temperature 28 °F -  
Max Temperature 30 °F 44 °F 77 °F (2006)
Min Temperature 26 °F 27 °F 9 °F (2014)
Degree Days  
Heating Degree Days 37    
Moisture  
Dew Point 21 °F    
Average Humidity 74    
Maximum Humidity 80    
Minimum Humidity 64    
Precipitation  
Precipitation 0.00 in - - ()
Sea Level Pressure  
Sea Level Pressure 30.24 in    
Wind  
Wind Speed 10 mph (NNW)    
Max Wind Speed 14 mph    
Max Gust Speed 16 mph    
Visibility 9 miles    
Events Snow    
Averages and records for this station are not official NWS values.
T = Trace of Precipitation, MM = Missing Value Source: NWS Daily Summary

Daily Weather History Graph

Daily Weather History Graph

Search for Another Location

Airport or City:

Trip Planner

Search our weather history database for the weather conditions in past years. The results will help you decide how hot, cold, wet, or windy it might be!

Date:

Astronomy

Mar. 01, 2013 Rise Set
Actual Time 6:49 AM CST 6:10 PM CST
Civil Twilight 6:22 AM CST 6:37 PM CST
Nautical Twilight 5:51 AM CST 7:08 PM CST
Astronomical Twilight 5:21 AM CST 7:39 PM CST
Moon 10:41 PM CST (3/1) 8:39 AM CST (3/1)
Length of Visible Light 12h 14m
Length of Day
11h 20m
Waning Gibbous, 83% of the Moon is Illuminated
Mar 1
Waning Gibbous
Mar 4
Last Quarter
Mar 11
New
Mar 19
First Quarter
Mar 27
Full

Hourly Weather History & Observations

Time (CST) Temp. Windchill Dew Point Humidity Pressure Visibility Wind Dir Wind Speed Gust Speed Precip Events Conditions
12:53 AM 30.0 °F 23.2 °F 24.1 °F 79% 30.20 in 10.0 mi NW 6.9 mph - N/A   Overcast
1:53 AM 28.9 °F 19.8 °F 23.0 °F 78% 30.20 in 10.0 mi NNW 10.4 mph - N/A   Overcast
2:03 AM 28.4 °F 19.7 °F 23.0 °F 80% 30.16 in 10.0 mi NNW 9.2 mph - N/A   Overcast
2:30 AM 28.4 °F 21.2 °F 23.0 °F 80% 30.16 in 10.0 mi NW 6.9 mph - N/A   Overcast
2:53 AM 28.0 °F 20.0 °F 21.9 °F 78% 30.20 in 10.0 mi NNW 8.1 mph - N/A   Overcast
3:17 AM 28.4 °F 21.2 °F 21.2 °F 74% 30.16 in 10.0 mi NW 6.9 mph - N/A   Overcast
3:53 AM 28.0 °F 19.3 °F 21.0 °F 75% 30.20 in 10.0 mi NW 9.2 mph - N/A   Overcast
4:19 AM 26.6 °F 17.5 °F 21.2 °F 80% 30.17 in 10.0 mi NW 9.2 mph - N/A   Overcast
4:53 AM 27.0 °F 17.3 °F 21.0 °F 78% 30.21 in 10.0 mi NW 10.4 mph - N/A   Overcast
5:53 AM 27.0 °F 16.1 °F 21.0 °F 78% 30.22 in 10.0 mi WNW 12.7 mph - 0.00 in   Overcast
6:53 AM 27.0 °F 16.7 °F 19.9 °F 75% 30.22 in 10.0 mi WNW 11.5 mph - N/A   Overcast
7:53 AM 27.0 °F 17.3 °F 19.9 °F 75% 30.23 in 8.0 mi NW 10.4 mph - 0.00 in   Overcast
8:53 AM 27.0 °F 18.0 °F 19.9 °F 75% 30.25 in 6.0 mi NW 9.2 mph - 0.00 in Snow Light Snow
9:53 AM 27.0 °F 16.1 °F 19.9 °F 75% 30.25 in 5.0 mi NW 12.7 mph - 0.00 in Snow Light Snow
10:53 AM 28.0 °F 17.5 °F 21.0 °F 75% 30.26 in 5.0 mi NNW 12.7 mph - 0.00 in Snow Light Snow
1:09 PM 30.2 °F 19.8 °F 19.4 °F 64% 30.21 in 10.0 mi North 13.8 mph - 0.00 in   Overcast
1:43 PM 28.4 °F 18.0 °F 21.2 °F 74% 30.21 in 6.0 mi NNW 12.7 mph - 0.00 in Snow Light Snow
1:50 PM 28.4 °F 17.5 °F 19.4 °F 69% 30.21 in 7.0 mi NNW 13.8 mph - 0.00 in Snow Light Snow
1:53 PM 28.9 °F 18.6 °F 19.9 °F 69% 30.24 in 7.0 mi NNW 12.7 mph - 0.00 in Snow Light Snow
2:53 PM 28.9 °F 18.6 °F 21.0 °F 72% 30.25 in 7.0 mi NNW 12.7 mph - 0.00 in Snow Light Snow
3:53 PM 30.0 °F 19.5 °F 21.0 °F 69% 30.26 in 10.0 mi North 13.8 mph - 0.00 in   Overcast
4:53 PM 30.0 °F 19.5 °F 19.9 °F 66% 30.27 in 8.0 mi NNW 13.8 mph - 0.00 in   Overcast
5:09 PM 28.4 °F 18.0 °F 19.4 °F 69% 30.23 in 7.0 mi NNW 12.7 mph - 0.00 in Snow Light Snow
5:20 PM 28.4 °F 17.5 °F 19.4 °F 69% 30.24 in 9.0 mi NNW 13.8 mph - 0.00 in   Overcast
5:53 PM 28.0 °F 18.1 °F 19.9 °F 72% 30.28 in 10.0 mi NNW 11.5 mph 16.1 mph 0.00 in   Overcast
6:53 PM 28.0 °F 20.8 °F 19.9 °F 72% 30.30 in 10.0 mi NNW 6.9 mph - N/A   Mostly Cloudy
7:53 PM 28.0 °F 18.6 °F 19.9 °F 72% 30.31 in 10.0 mi NNW 10.4 mph - N/A   Overcast
8:34 PM 26.6 °F 17.5 °F 19.4 °F 74% 30.28 in 10.0 mi NNW 9.2 mph - N/A   Overcast
8:53 PM 27.0 °F 17.3 °F 21.0 °F 78% 30.32 in 10.0 mi NNW 10.4 mph - N/A   Overcast
9:53 PM 27.0 °F 18.0 °F 21.0 °F 78% 30.33 in 10.0 mi North 9.2 mph - N/A   Overcast
10:53 PM 27.0 °F 17.3 °F 21.0 °F 78% 30.33 in 10.0 mi North 10.4 mph - N/A   Overcast
11:53 PM 27.0 °F 17.3 °F 19.9 °F 75% 30.33 in 10.0 mi North 10.4 mph - N/A   Overcast